Weather observations for the past three days for
Borger, Hutchinson County Airport
Metric (Imperial)
Date Time (cdt) Wind (kph) Vis. (km) Weather Sky Cond. Temperature (ºC) Relative Humidity Wind Chill (°C) Heat Index (°C) Pressure Precipitation (cm)
Air Dwpt 6 hour altimeter (cm) sea level (mb) 1 hr 3 hr 6 hr
Max. Min.
15 05:51 S 11 16.09 Fair CLR 25.6 13.3 47% 26 76.28 1011.5
15 04:51 SW 7 16.09 Fair CLR 25.6 12.8 45% 26 76.28 1011.4
15 03:51 SW 13 G 33 16.09 Fair CLR 27.2 12.2 39% 27 76.28 1011.3
15 02:51 S 20 16.09 Fair CLR 28.3 12.2 37% 28 76.28 1011.4
15 01:51 S 20 16.09 Fair CLR 28.9 11.7 34% 28 76.33 1011.8
15 00:51 S 20 16.09 Fair CLR 30 12.2 39.4 30 33% 29 76.33 1012.0
14 23:51 S 20 16.09 Fair CLR 31.1 12.2 31% 30 76.33 1011.9
14 22:51 S 24 G 39 16.09 Fair CLR 32.2 12.8 31% 31 76.28 1011.3
14 21:51 S 19 16.09 Fair CLR 33.9 12.2 27% 33 76.23 1010.8
14 20:51 S 19 G 39 16.09 Fair CLR 36.1 11.7 23% 35 76.23 1010.7
14 19:51 S 20 G 35 16.09 Fair CLR 38.3 11.1 19% 37 76.23 1010.7
14 18:51 S 26 G 39 16.09 Fair CLR 39.4 11.1 40.6 37.8 18% 38 76.23 1010.8
14 16:51 S 17 G 35 16.09 Fair CLR 40.6 10.6 16% 39 76.3 1011.6
14 15:51 S 28 G 44 16.09 Fair CLR 40.6 11.7 18% 40 76.3 1011.7
14 14:51 S 28 G 41 16.09 Fair CLR 40 11.1 18% 39 76.33 1012.0
14 13:51 S 28 G 43 16.09 Fair CLR 38.9 12.2 20% 38 76.4 1012.8
14 12:51 SW 20 G 35 16.09 Fair CLR 37.8 14.4 37.8 24.4 25% 38 76.45 1013.7
14 11:51 SW 30 G 43 16.09 Fair CLR 35.6 14.4 28% 35 76.48 1014.1
14 10:51 SW 31 G 50 16.09 Fair CLR 33.9 15 32% 34 76.48 1014.1
14 09:51 W 33 G 52 16.09 Fair and Breezy CLR 31.1 15.6 39% 31 76.5 1014.7
14 08:51 SW 19 16.09 Fair CLR 28.3 13.9 41% 28 76.56 1015.4
14 07:51 S 17 G 33 16.09 Fair CLR 25 12.2 45% 26 76.53 1015.1
14 06:51 SW 13 16.09 Fair CLR 24.4 11.7 28.9 24.4 45% 26 76.5 1014.6
14 05:51 SW 9 16.09 Fair CLR 24.4 11.1 43% 26 76.48 1014.4
14 04:51 W 9 16.09 Fair CLR 25 11.1 42% 26 76.48 1014.3
14 03:51 W 15 16.09 Fair CLR 27.2 10.6 35% 27 76.48 1013.9
14 02:51 S 26 G 44 16.09 Fair CLR 27.8 11.1 35% 27 76.45 1013.8
14 01:51 S 24 G 35 16.09 Fair CLR 28.3 11.1 34% 28 76.53 1014.7
14 00:51 S 24 16.09 Fair CLR 28.9 10.6 38.3 28.9 32% 28 76.56 1015.0
13 23:51 S 19 16.09 Fair CLR 28.9 10 31% 28 76.58 1015.4
13 22:51 S 19 16.09 Fair CLR 31.1 9.4 26% 30 76.53 1014.9
13 21:51 S 19 16.09 Fair CLR 32.2 10 25% 31 76.5 1014.5
13 20:51 S 15 16.09 Fair CLR 35 10 22% 33 76.45 1014.0
13 19:51 S 20 G 39 16.09 Fair CLR 37.2 8.3 17% 35 76.43 1013.4
13 18:51 S 22 G 33 16.09 Fair CLR 38.3 8.9 40 37.2 17% 36 76.4 1013.2
13 17:51 S 19 G 35 16.09 Fair CLR 38.9 8.3 15% 37 76.43 1013.6
13 16:51 S 28 G 44 16.09 Fair CLR 39.4 8.3 15% 37 76.45 1013.8
13 15:51 S 28 G 46 16.09 Fair CLR 39.4 7.2 14% 37 76.5 1014.3
13 14:51 S 20 G 37 16.09 Fair CLR 38.9 8.3 15% 37 76.53 1014.8
13 13:51 S 30 G 41 16.09 Fair CLR 37.8 7.8 16% 36 76.56 1015.1
13 12:51 S 24 G 44 16.09 Fair CLR 37.2 8.9 37.2 24.4 18% 35 76.58 1015.4
13 11:51 SW 22 G 41 16.09 Fair CLR 35.6 11.7 23% 34 76.61 1015.7
13 10:51 SW 22 G 41 16.09 Fair CLR 33.3 11.7 27% 32 76.63 1016.1
13 09:51 SW 28 G 39 16.09 Fair CLR 30.6 12.2 32% 30 76.63 1016.4
13 08:51 SW 22 16.09 Fair CLR 28.3 13.3 40% 28 76.63 1016.3
13 07:51 SW 24 G 39 16.09 Fair CLR 25.6 13.3 47% 26 76.63 1016.2
13 06:51 SW 26 G 35 16.09 Fair CLR 24.4 12.8 28.9 24.4 48% 26 76.61 1015.8
13 05:51 SW 24 G 37 16.09 Fair CLR 25.6 12.2 43% 26 76.56 1015.2
13 04:51 S 26 G 43 16.09 Fair CLR 26.7 12.8 42% 27 76.5 1014.3
13 03:51 S 30 G 46 16.09 Fair CLR 26.7 13.3 44% 27 76.48 1014.2
13 02:51 S 22 G 37 16.09 Fair CLR 26.7 13.3 44% 27 76.5 1014.3
13 01:51 S 26 16.09 Fair CLR 27.8 13.3 41% 28 76.5 1014.5
13 00:51 S 22 16.09 Fair CLR 28.9 12.2 38.9 28.9 36% 28 76.5 1014.4
12 23:51 S 24 G 41 16.09 Fair CLR 29.4 11.1 32% 28 76.48 1014.1
12 22:51 S 26 G 43 16.09 Fair CLR 31.1 10 27% 30 76.43 1013.5
12 21:51 S 26 G 41 16.09 Fair CLR 32.8 10 25% 31 76.35 1012.5
12 20:51 S 19 G 43 16.09 Fair CLR 35 10 22% 33 76.33 1012.0
12 19:51 S 20 G 37 16.09 Fair CLR 37.8 7.8 16% 36 76.28 1011.5
12 18:51 S 24 G 39 16.09 Fair CLR 38.3 7.2 40 37.8 15% 36 76.28 1011.4
12 17:51 S 19 G 37 16.09 Fair CLR 39.4 7.2 14% 37 76.28 1011.3
12 16:51 S 17 G 37 16.09 Fair CLR 39.4 8.3 15% 37 76.3 1011.7
12 15:51 SW 28 G 46 16.09 Fair CLR 39.4 8.3 15% 37 76.33 1012.0
12 14:51 S 20 G 37 16.09 Fair CLR 39.4 7.2 14% 37 76.35 1012.5
12 13:51 SW 22 G 35 16.09 Fair CLR 38.9 7.2 14% 37 76.4 1012.8
12 12:51 SW 17 16.09 Fair CLR 38.3 10 38.3 25 18% 37 76.43 1013.4
12 11:51 SW 20 G 33 16.09 Fair CLR 35.6 10.6 22% 34 76.45 1013.8
12 10:51 SW 24 G 39 16.09 Fair CLR 33.3 10.6 25% 32 76.48 1014.2
12 09:51 SW 24 G 39 16.09 Fair CLR 31.1 10.6 28% 30 76.48 1014.4
12 08:51 SW 17 16.09 Fair CLR 28.3 11.1 34% 28 76.5 1014.6
12 07:51 SW 17 G 35 16.09 Fair CLR 26.7 11.1 38% 27 76.43 1013.8
12 06:51 SW 17 16.09 Fair CLR 25 11.1 28.9 23.9 42% 26 76.4 1013.3
Date Time (cdt) Wind (kph) Vis. (km) Weather Sky Cond. Air Dwpt Max. Min. Relative Humidity Wind Chill (°C) Heat Index (°C) altimeter (cm) sea level (mb) 1 hr 3 hr 6 hr
6 hour
Temperature (ºC) Pressure Precipitation (cm)